Location: Launois
(49.6535°N, 4.5395°E)
Time: 02:00:30
(UTC+00:00)

Okean 1-7 - Pass Details

Date: 23 May 2024
Orbit: 579 x 604 km, 82.5° (Epoch: 21 June)

Event Time Altitude Azimuth Distance (km) Brightness Sun altitude
Exits shadow 01:30:23 27° 220° (SW) 1,155 3.9 -15.5°
Maximum altitude 01:32:26 51° 284° (WNW) 757 3.4 -15.3°
Drops below altitude 10° 01:36:40 10° 1° (N) 1,960 6.6 -15.0°
Sets 01:38:57 0° 7° (N) 2,871 7.8 -14.8°
